Location: Tehran
(35.6961°N, 51.4231°E)
Time: 17:48:42
(UTC+03:30)

ISS - Visible Passes

Search period start: 23 February 2018 00:00
Search period end: 05 March 2018 00:00
Orbit: 402 x 407 km, 51.6° (Epoch: 23 February)

Date Brightness Start Highest point End Pass type
(mag) Time Alt. Az. Time Alt. Az. Time Alt. Az.
24 Feb -0.9 05:54:21 10° S 05:56:41 18° SE 05:59:02 10° E visible
26 Feb -3.0 05:45:16 10° SSW 05:48:26 51° SE 05:51:38 10° ENE visible
27 Feb -1.7 04:55:03 19° SSE 04:56:17 24° SE 04:58:58 10° ENE visible
28 Feb -3.7 05:38:17 20° WSW 05:40:17 54° NW 05:43:30 10° NE visible
01 Mar -3.1 04:48:36 53° ENE 04:48:36 53° ENE 04:51:15 10° NE visible
02 Mar -2.4 05:31:24 21° WNW 05:32:16 23° NNW 05:34:58 10° NNE visible
03 Mar -1.8 04:41:24 23° NNE 04:41:24 23° NNE 04:42:57 10° NE visible
04 Mar -1.6 05:23:57 13° NNW 05:24:20 13° NNW 05:25:55 10° N visible
